User: anonymous   Login
Location: Unspecified
(0.0000°N, 0.0000°E)
Time: 21:52:37
(UTC+00:00)
Language:

STARLINK-34211 - Orbit

View from above orbital plane
View from above orbital plane
View from above satellite
View from above satellite

Ground track
Ground track

The orbit is defined by the following mean orbital elements,

1 64255U          26145.64146983 +.00000000 +00000-0 +38141-3 0 00004
2 64255  43.0014 232.8527 0001721 268.9626  91.1028 15.27589033    09
Epoch (UTC): 25 May 2026 15:23:42
Eccentricity: 0.0001721
inclination: 43.0014°
perigee height: 482 km
apogee height: 484 km
right ascension of ascending node: 232.8527°
argument of perigee: 268.9626°
revolutions per day: 15.27589033
mean anomaly at epoch: 91.1028°

The dashed part of the orbit path shows where the satellite is in the earth's shadow,  

DLR